Maxwell AFB, AL

6:49 PM CDT on October 21, 2018 (GMT -0500)
Maxwell Air Force Base

Weather History for KMXF - June, 2018

Change the Weather History Date:

Thursday, June 14, 2018

  Actual Average Record
Temperature  
Mean Temperature 78 °F -  
Max Temperature 84 °F 87 °F 99 °F (2011)
Min Temperature 71 °F 69 °F 66 °F (2007)
Cooling Degree Days 12    
Growing Degree Days 28 (Base 50)    
Moisture  
Dew Point 71 °F    
Average Humidity 87    
Maximum Humidity 97    
Minimum Humidity 68    
Precipitation  
Precipitation 0.07 in - - ()
Sea Level Pressure  
Sea Level Pressure 30.04 in    
Wind  
Wind Speed 3 mph (West)    
Max Wind Speed 10 mph    
Max Gust Speed -    
Visibility 10 miles    
Events Rain    
Averages and records for this station are not official NWS values.
T = Trace of Precipitation, MM = Missing Value Source: NWS Daily Summary

Daily Weather History Graph

Daily Weather History Graph

Search for Another Location

Airport or City:

Astronomy

Jun. 14, 2018 Rise Set
Actual Time 5:37 AM CDT 7:53 PM CDT
Civil Twilight 5:09 AM CDT 8:22 PM CDT
Nautical Twilight 4:34 AM CDT 8:56 PM CDT
Astronomical Twilight 3:57 AM CDT 9:34 PM CDT
Moon 6:31 AM CDT (6/14) 8:56 PM CDT (6/14)
Length of Visible Light 15h 12m
Length of Day
14h 15m
New Moon, 1% of the Moon is Illuminated
Jun 14
New Moon
Jun 20
First Quarter
Jun 27
Full
Jul 6
Last Quarter
Jul 12
New

Hourly Weather History & Observations

Time (CDT) Temp. Heat Index Dew Point Humidity Pressure Visibility Wind Dir Wind Speed Gust Speed Precip Events Conditions
12:56 AM 74.7 °F - 70.5 °F 87% 30.05 in 10.0 mi WSW 3.5 mph - N/A   Overcast
1:56 AM 72.9 °F - 70.0 °F 91% 30.03 in 10.0 mi Calm Calm - N/A   Mostly Cloudy
2:56 AM 72.9 °F - 69.6 °F 90% 30.01 in 10.0 mi Calm Calm - N/A   Clear
3:56 AM 72.5 °F - 69.6 °F 91% 30.03 in 10.0 mi Calm Calm - N/A   Scattered Clouds
4:56 AM 71.2 °F - 69.4 °F 94% 30.04 in 10.0 mi Calm Calm - N/A   Overcast
5:56 AM 72.5 °F - 69.6 °F 91% 30.05 in 10.0 mi WNW 3.5 mph - N/A   Overcast
6:56 AM 72.7 °F - 69.6 °F 90% 30.05 in 10.0 mi WNW 3.5 mph - N/A   Overcast
7:04 AM 73.4 °F - 69.8 °F 88% 30.05 in 10.0 mi Calm Calm - N/A Rain Light Rain
7:13 AM 73.4 °F - 69.8 °F 88% 30.05 in 10.0 mi WNW 4.6 mph - N/A   Overcast
7:18 AM 73.4 °F - 69.8 °F 88% 30.05 in 10.0 mi WNW 3.5 mph - N/A   Light Drizzle
7:56 AM 73.0 °F - 70.2 °F 91% 30.07 in 10.0 mi WSW 3.5 mph - 0.00 in Rain Light Rain
8:19 AM 73.4 °F - 69.8 °F 88% 30.08 in 10.0 mi NW 4.6 mph - N/A   Overcast
8:24 AM 73.4 °F - 69.8 °F 88% 30.08 in 10.0 mi WNW 4.6 mph - N/A   Light Drizzle
8:56 AM 73.2 °F - 70.3 °F 91% 30.08 in 8.0 mi Calm Calm - 0.00 in Rain Light Rain
9:30 AM 73.4 °F - 71.6 °F 94% 30.09 in 10.0 mi Calm Calm - N/A   Overcast
9:56 AM 73.8 °F - 70.5 °F 90% 30.09 in 10.0 mi Calm Calm - 0.01 in   Overcast
10:11 AM 73.4 °F - 71.6 °F 94% 30.09 in 10.0 mi Calm Calm - N/A   Overcast
10:16 AM 73.4 °F - 71.6 °F 94% 30.09 in 10.0 mi Calm Calm - N/A Rain Light Rain
10:31 AM 73.4 °F - 71.6 °F 94% 30.09 in 4.0 mi West 3.5 mph - N/A Rain Light Rain
10:46 AM 73.4 °F - 71.6 °F 94% 30.09 in 4.0 mi Calm Calm - N/A Rain Light Rain
10:56 AM 74.5 °F - 72.3 °F 93% 30.09 in 6.0 mi SW 3.5 mph - 0.03 in Rain Light Rain
11:11 AM 75.2 °F - 73.4 °F 94% 30.08 in 10.0 mi Calm Calm - N/A Rain Light Rain
11:23 AM 75.2 °F - 71.6 °F 89% 30.08 in 10.0 mi SSW 3.5 mph - N/A   Overcast
11:56 AM 75.9 °F - 72.3 °F 89% 30.07 in 10.0 mi West 3.5 mph - 0.01 in   Overcast
12:56 PM 78.1 °F - 72.5 °F 83% 30.05 in 10.0 mi WNW 4.6 mph - N/A   Overcast
1:41 PM 82.4 °F 88.2 °F 73.4 °F 74% 30.03 in 10.0 mi West 6.9 mph - N/A   Mostly Cloudy
1:56 PM 82.0 °F 87.2 °F 72.5 °F 73% 30.03 in 10.0 mi West 5.8 mph - N/A   Mostly Cloudy
2:26 PM 82.4 °F 87.2 °F 71.6 °F 70% 30.02 in 10.0 mi WNW 6.9 mph - N/A   Mostly Cloudy
2:56 PM 84.0 °F 89.9 °F 72.3 °F 68% 30.01 in 10.0 mi WNW 4.6 mph - N/A   Scattered Clouds
3:56 PM 82.0 °F 86.7 °F 72.0 °F 71% 29.99 in 10.0 mi WNW 4.6 mph - N/A   Overcast
4:56 PM 83.7 °F 89.2 °F 72.0 °F 68% 29.98 in 10.0 mi WNW 3.5 mph - N/A   Mostly Cloudy
5:56 PM 81.7 °F 86.7 °F 72.5 °F 74% 29.97 in 10.0 mi Calm Calm - N/A   Partly Cloudy
6:56 PM 80.4 °F 84.4 °F 71.8 °F 75% 29.97 in 10.0 mi NE 10.4 mph - N/A   Overcast
7:01 PM 78.8 °F - 71.6 °F 78% 29.97 in 10.0 mi NE 9.2 mph - N/A Rain Light Rain
7:15 PM 77.0 °F - 73.4 °F 89% 29.99 in 9.0 mi NE 8.1 mph - N/A   Overcast
7:47 PM 75.2 °F - 71.6 °F 89% 29.99 in 10.0 mi Calm Calm - N/A   Light Drizzle
7:56 PM 75.6 °F - 71.8 °F 88% 29.99 in 10.0 mi Calm Calm - 0.00 in Rain Light Rain
8:56 PM 74.5 °F - 72.5 °F 94% 30.00 in 10.0 mi SSE 3.5 mph - 0.02 in Rain Light Rain
9:08 PM 75.2 °F - 71.6 °F 89% 30.00 in 10.0 mi South 3.5 mph - N/A   Mostly Cloudy
9:56 PM 73.9 °F - 72.7 °F 96% 30.01 in 10.0 mi South 3.5 mph - 0.00 in   Overcast
10:56 PM 73.9 °F - 72.7 °F 96% 30.02 in 10.0 mi Calm Calm - N/A   Mostly Cloudy
11:56 PM 72.7 °F - 71.8 °F 97% 30.02 in 10.0 mi Calm Calm - N/A   Overcast